[[{"header":{"parameterUnit":"m.s-1","parameterCategory":1,"la1":30.2991,"la2":30.254,"lo1":-89.0895,"lo2":-89.0444,"dy":0.0017,"dx":0.0017,"nx":28,"ny":28,"refTime":"2023-09-21T03:00:00:Z","depth":0,"parameterNumber":2,"parameterNumberName":"U-component_of_WINDS"},"data":[0,0,0,0,0,0,0,0,0,0,0,0,0,0,0,0,0,0,0,0,0,0,0,0,0,0,0,0,0,0,0,0,0,0,0,0,0,0,0,0,0,0,0,0,0,0,0,0,0,0,0,0,0,0,0,0,0,0,-4.4827,-4.4827,0,-4.4814,-4.4814,-4.4814,-4.4692,-4.4689,-4.4685,-4.4683,-4.467,-4.4672,-4.4675,0,0,0,0,0,0,0,0,0,0,0,0,0,-4.4747,-4.4749,-4.4827,-4.4827,-4.4827,-4.4814,-4.4814,-4.4814,-4.4692,-4.4688,-4.4685,-4.4681,-4.4669,-4.4672,-4.4675,0,0,0,0,0,0,0,0,0,0,0,0,0,-4.4763,-4.475,-4.4827,-4.4765,-4.4759,-4.4814,-4.4814,-4.4814,-4.4693,-4.4688,-4.4684,-4.4679,-4.4668,-4.4671,-4.4675,-4.479,0,0,-4.4687,-4.4688,0,0,0,0,0,0,0,0,-4.4762,-4.4766,-4.4774,-4.4769,-4.4763,-4.475,-4.4781,-4.4806,-4.4694,-4.4718,-4.4682,-4.4677,-4.47,-4.4701,-4.4708,-4.4789,-4.4789,-4.4687,-4.4689,-4.4691,-4.4692,0,0,0,0,0,0,0,-4.4761,-4.4766,-4.4822,-4.4774,-4.4767,-4.4737,-4.4735,-4.4785,-4.4735,-4.4715,-4.4707,-4.4707,-4.4696,-4.4705,-4.4707,-4.4789,-4.4687,-4.469,-4.4693,-4.4694,-4.4965,-4.4969,0,0,0,0,0,0,-4.4769,-4.4766,-4.4822,-4.4822,-4.4751,-4.4743,-4.4739,-4.4759,-4.4734,-4.4726,-4.4711,-4.4701,-4.4701,-4.4703,-4.4706,-4.484,-4.4691,-4.4694,-4.4696,-4.496,-4.4966,-4.4971,0,0,0,0,0,0,-4.4768,-4.4775,-4.4823,-4.4791,-4.4795,-4.4749,-4.4771,-4.4761,-4.477,-4.473,-4.4721,-4.4729,-4.4697,-4.4701,-4.477,-4.4838,-4.4696,-4.4699,-4.4954,-4.4962,-4.4968,-4.5109,0,0,0,0,0,0,-4.4766,-4.4775,-4.4818,-4.4793,-4.4797,-4.4887,-4.4775,-4.4764,-4.4776,-4.4764,-4.4745,-4.4738,-4.4694,-4.4766,-4.4774,-4.4841,-4.4702,-4.4948,-4.4957,-4.4966,-4.5098,-4.512,-4.5139,0,0,0,0,0,-4.4763,-4.4858,-4.4821,-4.4828,-4.485,-4.4891,-4.4894,-4.4842,-4.4782,-4.4825,-4.48,-4.4738,-4.4829,-4.4774,-4.4782,-4.4851,-4.4943,-4.4955,-4.4965,-4.5089,-4.5116,-4.5138,0,0,0,0,0,0,-4.4891,-4.4853,-4.4812,-4.4901,-4.4901,-4.4871,-4.4923,-4.4872,-4.4888,-4.4876,-4.481,-4.4807,-4.4887,-4.4875,-4.4814,-4.4962,-4.4876,-4.4889,-4.4966,-4.4992,-4.5012,-4.5013,-4.4705,0,0,0,0,0,-4.493,-4.4967,-4.4931,-4.5014,-4.5015,-4.497,-4.4986,-4.4946,-4.4943,-4.4942,-4.4922,-4.4921,-4.495,-4.497,-4.4994,-4.5095,-4.509,-4.5147,-4.5168,-4.5185,-4.5197,-4.5252,-4.5277,-4.5008,-4.5008,-4.5007,0,0,-4.501,-4.4994,-4.5021,-4.5039,-4.5034,-4.5074,-4.497,-4.5017,-4.5046,-4.4949,-4.5013,-4.4999,-4.4994,-4.5081,-4.5118,-4.5074,-4.5271,-4.5199,-4.5213,-4.5216,-4.5266,-4.5292,-4.5314,-4.5015,-4.5014,-4.5013,0,0,-4.5177,-4.5168,-4.5236,-4.5233,-4.5227,-4.5196,-4.5213,-4.5191,-4.5178,-4.5242,-4.517,-4.5205,-4.5255,-4.5255,-4.5261,-4.543,-4.5374,-4.544,-4.5548,-4.5602,-4.5623,-4.5641,-4.5703,-4.5726,-4.5452,-4.5453,-4.5453,0,-4.5277,-4.5334,-4.5277,-4.5329,-4.534,-4.5254,-4.5323,-4.5323,-4.5326,-4.5335,-4.5286,-4.5348,-4.5338,-4.5425,-4.5466,-4.5474,-4.5492,-4.5442,-4.5624,-4.5642,-4.5659,-4.5717,-4.574,-4.5461,-4.546,-4.5459,-4.5458,0,-4.5459,-4.55,-4.5556,-4.5561,-4.5578,-4.5638,-4.5591,-4.5615,-4.5574,-4.5549,-4.5616,-4.5602,-4.5622,-4.5639,-4.56,-4.5721,-4.5694,-4.5636,-4.5548,-4.5694,-4.5747,-4.5769,-4.5472,-4.5469,-4.5467,-4.5465,0,0,-4.5705,-4.5679,-4.57,-4.5702,-4.569,-4.5721,-4.5778,-4.5798,-4.5821,-4.5826,-4.5873,-4.5918,-4.5864,-4.5872,-4.5831,-4.5879,-4.6016,-4.5815,-4.5813,-4.5854,-4.615,-4.6195,-4.6222,-4.5978,-4.5982,-4.5986,-4.6151,0,-4.5866,-4.5962,-4.5913,-4.6016,-4.6054,-4.5974,-4.6024,-4.6022,-4.6001,-4.603,-4.6006,-4.604,-4.5966,-4.597,-4.6013,-4.599,-4.6075,-4.5977,-4.6022,-4.6025,-4.6027,-4.6249,-4.6296,-4.6453,-4.6172,-4.6175,-4.6178,0,-4.6067,-4.6082,-4.6188,-4.6171,-4.6185,-4.6231,-4.6246,-4.6275,-4.6272,-4.6253,-4.6263,-4.6212,-4.6267,-4.6181,-4.6257,-4.6192,-4.6207,-4.6199,-4.6204,-4.6207,-4.6111,-4.6259,-4.6502,-4.6526,-4.621,-4.6207,-4.6205,0,-4.6238,-4.6284,-4.6354,-4.6358,-4.6339,-4.6373,-4.6367,-4.6359,-4.6375,-4.6389,-4.6399,-4.6419,-4.643,-4.6447,-4.6403,-4.6344,-4.6486,-4.6395,-4.6473,-4.6475,-4.6507,-4.6506,-4.6757,-4.6516,-4.6516,-4.6515,-4.6515,0,-4.6424,-4.6493,-4.6431,-4.6474,-4.6549,-4.6492,-4.6568,-4.6553,-4.6548,-4.6587,-4.6519,-4.6557,-4.6497,-4.6529,-4.6495,-4.6565,-4.657,-4.6557,-4.6547,-4.6564,-4.6566,-4.6574,-4.6562,-4.6521,-4.652,-4.6519,-4.6518,0,-4.6627,-4.6588,-4.666,-4.6636,-4.6632,-4.6689,-4.6669,-4.6708,-4.6682,-4.6733,-4.6742,-4.6702,-4.6737,-4.6695,-4.6726,-4.6703,-4.6798,-4.6772,-4.68,-4.6792,-4.6873,-4.6867,-4.7139,-4.7172,-4.6909,-4.6912,-4.6914,0,-4.6749,-4.68,-4.6783,-4.6805,-4.6802,-4.6838,-4.6854,-4.6801,-4.6821,-4.6823,-4.6862,-4.6892,-4.6913,-4.6973,-4.6947,-4.6971,-4.6946,-4.7039,-4.6949,-4.6964,-4.6949,-4.6947,-4.6952,-4.7058,-4.7061,-4.7064,-4.7066,0,-4.697,-4.6948,-4.6974,-4.6995,-4.7017,-4.703,-4.7038,-4.706,-4.7004,-4.703,-4.7066,-4.7082,-4.7115,-4.7146,-4.7163,-4.7156,-4.7103,-4.7095,-4.7114,-4.7132,-4.7146,-4.7141,-4.6851,-4.7089,-4.7086,-4.7085,-4.7083,-4.7083,-4.7136,-4.7179,-4.7174,-4.7206,-4.7207,-4.7216,-4.7253,-4.7232,-4.7261,-4.7284,-4.725,-4.7295,-4.7292,-4.731,-4.731,-4.7345,-4.7305,-4.7333,-4.734,-4.7348,-4.7361,-4.7141,-4.7348,-4.7347,-4.7346,-4.7346,-4.7345,0,-4.7354,-4.7348,-4.7378,-4.7392,-4.7418,-4.7365,-4.7371,-4.7397,-4.7437,-4.7439,-4.7461,-4.7503,-4.7533,-4.751,-4.7535,-4.7568,-4.7544,-4.7577,-4.7574,-4.7574,-4.7395,-4.7376,-4.7596,-4.7596,-4.7595,-4.7595,-4.7595,-4.7595,-4.7471,-4.7541,-4.7519,-4.7589,-4.7581,-4.7625,-4.7634,-4.7643,-4.7644,-4.7694,-4.7719,-4.7704,-4.7696,-4.7721,-4.7746,-4.7739,-4.7752,-4.7793,-4.7778,-4.7611,-4.7586,-4.7563,-4.7545,-4.7796,-4.7797,-4.7954,-4.7955,-4.7956]},{"header":{"parameterUnit":"m.s-1","parameterCategory":1,"la1":30.2991,"la2":30.254,"lo1":-89.0895,"lo2":-89.0444,"dy":0.0017,"dx":0.0017,"nx":28,"ny":28,"refTime":"2023-09-21T03:00:00:Z","depth":0,"parameterNumber":3,"parameterNumberName":"V-component_of_WINDS"},"data":[0,0,0,0,0,0,0,0,0,0,0,0,0,0,0,0,0,0,0,0,0,0,0,0,0,0,0,0,0,0,0,0,0,0,0,0,0,0,0,0,0,0,0,0,0,0,0,0,0,0,0,0,0,0,0,0,0,0,-1.992,-1.992,0,-1.9945,-1.9945,-1.9945,-1.9919,-1.9918,-1.9917,-1.9916,-1.9942,-1.9944,-1.9945,0,0,0,0,0,0,0,0,0,0,0,0,0,-1.9849,-1.985,-1.992,-1.992,-1.992,-1.9945,-1.9945,-1.9945,-1.992,-1.9918,-1.9917,-1.9916,-1.9942,-1.9943,-1.9945,0,0,0,0,0,0,0,0,0,0,0,0,0,-1.9877,-1.9851,-1.992,-1.991,-1.991,-1.9945,-1.9945,-1.9945,-1.992,-1.9918,-1.9917,-1.9915,-1.9941,-1.9943,-1.9946,-1.9991,0,0,-1.9953,-1.9954,0,0,0,0,0,0,0,0,-1.9876,-1.988,-1.9912,-1.9911,-1.9911,-1.9927,-1.9929,-1.9961,-1.992,-1.9916,-1.9916,-1.9915,-1.9938,-1.9941,-1.9949,-1.9992,-1.9993,-1.9953,-1.9955,-1.9956,-1.9956,0,0,0,0,0,0,0,-1.9874,-1.9879,-1.993,-1.9912,-1.9911,-1.9905,-1.9907,-1.9935,-1.9935,-1.9916,-1.9914,-1.9918,-1.9938,-1.9947,-1.9949,-1.9993,-1.9953,-1.9955,-1.9957,-1.9958,-2.0074,-2.0075,0,0,0,0,0,0,-1.9873,-1.9877,-1.9929,-1.993,-1.9889,-1.9907,-1.991,-1.9924,-1.9935,-1.9935,-1.9919,-1.9916,-1.9943,-1.9947,-1.995,-2.0003,-1.9956,-1.9958,-1.9959,-2.0072,-2.0074,-2.0076,0,0,0,0,0,0,-1.9871,-1.9878,-1.9928,-1.9903,-1.9909,-1.991,-1.9926,-1.9925,-1.9934,-1.9937,-1.9937,-1.9928,-1.9942,-1.9947,-1.9981,-2.0004,-1.9959,-1.9961,-2.007,-2.0073,-2.0075,-2.0111,0,0,0,0,0,0,-1.987,-1.9877,-1.9895,-1.9904,-1.9911,-1.9958,-1.9927,-1.9926,-1.9938,-1.9935,-1.9946,-1.9946,-1.9941,-1.9977,-1.9983,-2.0006,-1.9963,-2.0068,-2.0071,-2.0074,-2.0107,-2.0114,-2.012,0,0,0,0,0,-1.9867,-1.9904,-1.9896,-1.9902,-1.9933,-1.996,-1.9964,-1.9958,-1.994,-1.9957,-1.9959,-1.9946,-2.0,-1.9981,-1.9987,-2.0012,-2.0067,-2.007,-2.0074,-2.0105,-2.0113,-2.012,0,0,0,0,0,0,-1.9899,-1.9905,-1.9896,-1.9938,-1.9948,-1.9955,-1.9978,-1.9967,-1.9983,-1.9979,-1.9971,-1.9973,-2.0009,-2.0014,-1.9992,-2.0055,-2.003,-2.0036,-2.0052,-2.0059,-2.0065,-2.0064,-1.9965,0,0,0,0,0,-1.991,-1.9932,-1.9937,-1.9973,-1.9978,-1.9977,-1.9989,-1.9983,-1.9994,-1.9998,-2.0003,-2.0014,-2.0033,-2.0046,-2.0064,-2.0107,-2.0109,-2.0127,-2.0133,-2.0138,-2.0143,-2.0166,-2.0174,-2.0088,-2.0088,-2.0088,0,0,-1.9935,-1.9941,-1.9956,-1.9979,-1.9987,-2.0009,-1.9981,-2.0006,-2.0023,-2.0002,-2.0034,-2.0038,-2.0049,-2.0088,-2.0105,-2.0093,-2.0167,-2.0143,-2.0147,-2.0149,-2.017,-2.0178,-2.0186,-2.009,-2.009,-2.0089,0,0,-1.9992,-1.9999,-2.0029,-2.0037,-2.0048,-2.0047,-2.0054,-2.0063,-2.0064,-2.0096,-2.0081,-2.01,-2.0134,-2.0142,-2.0151,-2.0209,-2.0197,-2.0215,-2.0247,-2.0269,-2.0276,-2.0282,-2.0303,-2.031,-2.0219,-2.0219,-2.022,0,-2.0021,-2.0054,-2.0046,-2.0072,-2.0082,-2.0064,-2.0094,-2.0102,-2.0119,-2.0127,-2.0112,-2.0154,-2.016,-2.02,-2.0214,-2.0222,-2.023,-2.0214,-2.0276,-2.0282,-2.0287,-2.0307,-2.0314,-2.0222,-2.0221,-2.0221,-2.0221,0,-2.009,-2.0113,-2.0136,-2.0152,-2.0165,-2.0193,-2.0189,-2.0203,-2.0195,-2.0195,-2.0227,-2.0234,-2.0253,-2.0262,-2.0255,-2.03,-2.0292,-2.0277,-2.0252,-2.0298,-2.0316,-2.0323,-2.0225,-2.0224,-2.0223,-2.0223,0,0,-2.0169,-2.0179,-2.0188,-2.0194,-2.0205,-2.0223,-2.0249,-2.0267,-2.0279,-2.0291,-2.0313,-2.0341,-2.0326,-2.0336,-2.033,-2.0349,-2.0394,-2.0331,-2.0331,-2.0343,-2.0444,-2.0457,-2.0465,-2.0386,-2.0387,-2.0388,-2.0444,0,-2.0226,-2.0272,-2.0265,-2.031,-2.033,-2.0312,-2.0335,-2.0344,-2.0344,-2.0361,-2.0361,-2.0381,-2.036,-2.0366,-2.0384,-2.0385,-2.0415,-2.0381,-2.0406,-2.0407,-2.0405,-2.0475,-2.0488,-2.054,-2.0451,-2.0452,-2.0453,0,-2.0299,-2.0313,-2.036,-2.0366,-2.0374,-2.0395,-2.0411,-2.0427,-2.0436,-2.0435,-2.0445,-2.0435,-2.0461,-2.0434,-2.0469,-2.0447,-2.0456,-2.0458,-2.046,-2.0463,-2.0434,-2.048,-2.0557,-2.0565,-2.0464,-2.0463,-2.0462,0,-2.0352,-2.0382,-2.0414,-2.0421,-2.0428,-2.0443,-2.0447,-2.0455,-2.0466,-2.0479,-2.0486,-2.0502,-2.0511,-2.0523,-2.0517,-2.0498,-2.0553,-2.0526,-2.0553,-2.0553,-2.0567,-2.0566,-2.0647,-2.0572,-2.0571,-2.0571,-2.0571,0,-2.0417,-2.0447,-2.0438,-2.0458,-2.049,-2.048,-2.0512,-2.0514,-2.052,-2.0539,-2.0524,-2.0542,-2.0533,-2.0551,-2.0546,-2.0576,-2.058,-2.0579,-2.0578,-2.0581,-2.0581,-2.0588,-2.0585,-2.0573,-2.0573,-2.0572,-2.0572,0,-2.0483,-2.0479,-2.0512,-2.0516,-2.0518,-2.0541,-2.0544,-2.0562,-2.056,-2.0585,-2.059,-2.0587,-2.0607,-2.0601,-2.0623,-2.062,-2.0658,-2.0651,-2.0655,-2.0653,-2.0681,-2.0678,-2.0769,-2.078,-2.0697,-2.0698,-2.0699,0,-2.0525,-2.0548,-2.0554,-2.0565,-2.057,-2.0589,-2.06,-2.0591,-2.0602,-2.0613,-2.063,-2.0648,-2.0662,-2.0694,-2.0694,-2.071,-2.0704,-2.0735,-2.0707,-2.0709,-2.0705,-2.0704,-2.0706,-2.0741,-2.0742,-2.0742,-2.0743,0,-2.0601,-2.0597,-2.0613,-2.0628,-2.0642,-2.0653,-2.0663,-2.0673,-2.0664,-2.0678,-2.0698,-2.0709,-2.073,-2.0748,-2.0762,-2.0766,-2.0753,-2.0752,-2.0759,-2.0763,-2.0764,-2.0764,-2.0671,-2.075,-2.0749,-2.0749,-2.0748,-2.0748,-2.0657,-2.0675,-2.0682,-2.07,-2.0706,-2.0716,-2.0733,-2.0732,-2.0748,-2.0765,-2.0758,-2.078,-2.0787,-2.0805,-2.081,-2.0828,-2.0816,-2.0826,-2.0829,-2.0832,-2.0835,-2.0761,-2.083,-2.083,-2.083,-2.0829,-2.0829,0,-2.0732,-2.0735,-2.0752,-2.0766,-2.078,-2.0765,-2.0775,-2.0788,-2.0808,-2.0815,-2.0829,-2.0851,-2.0868,-2.0868,-2.0884,-2.0898,-2.0892,-2.0902,-2.0901,-2.0902,-2.0845,-2.0837,-2.0906,-2.0906,-2.0906,-2.0906,-2.0906,-2.0906,-2.0773,-2.0803,-2.08,-2.0833,-2.0835,-2.0857,-2.0864,-2.0872,-2.0878,-2.0903,-2.0917,-2.0917,-2.0921,-2.0937,-2.0951,-2.0951,-2.0958,-2.097,-2.0968,-2.0914,-2.0907,-2.0899,-2.0892,-2.0972,-2.0972,-2.1024,-2.1024,-2.1025]}]]